Weather History for KNEL - July, 2013

Change the Weather History Date:

Monday, July 1, 2013

  Actual Average Record
Temperature  
Mean Temperature 84 °F -  
Max Temperature 91 °F 82 °F 96 °F (2012)
Min Temperature 77 °F 67 °F 54 °F (2011)
Cooling Degree Days 19    
Growing Degree Days 34 (Base 50)    
Moisture  
Dew Point 73 °F    
Average Humidity 67    
Maximum Humidity 83    
Minimum Humidity 54    
Precipitation  
Precipitation 0.00 in - - ()
Sea Level Pressure  
Sea Level Pressure 29.97 in    
Wind  
Wind Speed 6 mph (South)    
Max Wind Speed 13 mph    
Max Gust Speed 22 mph    
Averages and records for this station are not official NWS values.
T = Trace of Precipitation, MM = Missing Value Source: NWS Daily Summary

Daily Weather History Graph

Daily Weather History Graph

Search for Another Location

Airport or City:

Trip Planner

Search our weather history database for the weather conditions in past years. The results will help you decide how hot, cold, wet, or windy it might be!

Date:

Astronomy

Jul. 01, 2013 Rise Set
Actual Time 5:32 AM EDT 8:30 PM EDT
Civil Twilight 4:59 AM EDT 9:02 PM EDT
Nautical Twilight 4:18 AM EDT 9:44 PM EDT
Astronomical Twilight 3:29 AM EDT 10:32 PM EDT
Moon 1:00 AM EDT (7/1) 2:43 PM EDT (7/1)
Length of Visible Light 16h 03m
Length of Day
14h 57m
Waning Crescent, 35% of the Moon is Illuminated
Jul 1
Waning Crescent
Jul 8
New
Jul 15
First Quarter
Jul 22
Full
Jul 29
Last Quarter

Hourly Weather History & Observations

Time (EDT) Temp. Heat Index Dew Point Humidity Pressure Visibility Wind Dir Wind Speed Gust Speed Precip Events Conditions
12:00 AM 82.0 °F 86.3 °F 71.1 °F 69% 29.90 in - SSW 4.6 mph - N/A   Partly Cloudy
12:30 AM 77.0 °F - 71.6 °F 83% 29.91 in - Calm Calm - N/A   Mostly Cloudy
1:00 AM 80.1 °F 83.6 °F 71.1 °F 74% 29.91 in - Calm Calm - N/A   Overcast
2:00 AM 82.9 °F 87.5 °F 71.1 °F 67% 29.91 in - South 4.6 mph - N/A   Overcast
2:47 AM 82.4 °F 87.2 °F 71.6 °F 70% 29.91 in - South 4.6 mph - N/A   Mostly Cloudy
3:00 AM 84.0 °F 89.0 °F 71.1 °F 65% 29.90 in - SSE 4.6 mph - N/A   Overcast
4:00 AM 84.0 °F 89.6 °F 72.0 °F 67% 29.89 in - SSE 6.9 mph - N/A   Overcast
5:00 AM 82.9 °F 88.0 °F 72.0 °F 69% 29.91 in - South 6.9 mph - N/A   Overcast
6:00 AM 84.0 °F 89.6 °F 72.0 °F 67% 29.92 in - South 5.8 mph - N/A   Overcast
8:00 AM 84.9 °F 91.4 °F 73.0 °F 67% 29.94 in - South 8.1 mph - N/A   Overcast
8:31 AM 86.0 °F 93.4 °F 73.4 °F 66% 29.95 in - South 9.2 mph - N/A   Overcast
9:00 AM 87.1 °F 95.4 °F 73.9 °F 65% 29.96 in - SSW 6.9 mph - N/A   Overcast
9:27 AM 89.6 °F 98.2 °F 73.4 °F 59% 29.96 in - South 6.9 mph - N/A   Overcast
10:00 AM 91.9 °F 100.7 °F 73.0 °F 54% 29.94 in - South 9.2 mph - N/A   Mostly Cloudy
10:50 AM 91.4 °F 100.1 °F 73.4 °F 55% 29.95 in - SSW 12.7 mph 21.9 mph N/A   Overcast
11:00 AM 88.0 °F 97.5 °F 75.0 °F 65% 29.95 in - West 8.1 mph 19.6 mph N/A Rain Light Rain
11:24 AM 84.2 °F 90.9 °F 73.4 °F 70% 29.97 in - West 6.9 mph - N/A   Overcast
12:00 PM 86.0 °F 93.8 °F 73.9 °F 67% 29.97 in - SW 3.5 mph - N/A Rain Light Rain
12:28 PM 87.8 °F 97.6 °F 75.2 °F 66% 29.97 in - South 3.5 mph - N/A Rain Light Rain
12:37 PM 89.6 °F 99.8 °F 75.2 °F 62% 29.97 in - South 8.1 mph - N/A   Overcast
12:45 PM 91.4 °F 102.5 °F 75.2 °F 59% 29.98 in - South 9.2 mph 16.1 mph N/A   Overcast
1:00 PM 90.0 °F 101.3 °F 75.9 °F 63% 29.98 in - South 8.1 mph - N/A Rain Light Rain
1:35 PM 89.6 °F 98.2 °F 73.4 °F 59% 29.98 in - SSW 9.2 mph - N/A   Overcast
2:00 PM 87.1 °F 95.4 °F 73.9 °F 65% 29.98 in - SW 8.1 mph - N/A Rain Light Rain
2:34 PM 86.0 °F 95.1 °F 75.2 °F 70% 29.98 in - South 12.7 mph - N/A Rain Light Rain
3:06 PM 84.9 °F 92.1 °F 73.9 °F 69% 29.97 in - South 5.8 mph - N/A Rain Light Rain
3:27 PM 87.8 °F 95.6 °F 73.4 °F 62% 29.96 in - SE 8.1 mph - N/A Rain Light Rain
4:00 PM 84.9 °F 92.1 °F 73.9 °F 69% 29.97 in - SSW 8.1 mph - N/A Rain Light Rain
5:00 PM 87.1 °F 94.5 °F 73.0 °F 63% 29.98 in - SSW 6.9 mph - N/A   Mostly Cloudy
6:00 PM 86.0 °F 93.0 °F 73.0 °F 65% 29.98 in - South 11.5 mph - N/A   Mostly Cloudy
6:45 PM 84.2 °F 90.9 °F 73.4 °F 70% 30.00 in - South 10.4 mph - N/A   Overcast
7:00 PM 82.9 °F 88.0 °F 72.0 °F 69% 30.01 in - South 8.1 mph - N/A   Overcast
7:57 PM 82.4 °F 87.2 °F 71.6 °F 70% 30.02 in - South 10.4 mph - N/A   Overcast
8:00 PM 82.9 °F 88.0 °F 72.0 °F 69% 30.01 in - South 8.1 mph - N/A   Overcast
9:00 PM 82.9 °F 88.0 °F 72.0 °F 69% 30.02 in - South 5.8 mph - N/A   Overcast
9:24 PM 82.4 °F 87.2 °F 71.6 °F 70% 30.03 in - South 9.2 mph - N/A   Overcast
9:47 PM 82.4 °F 87.2 °F 71.6 °F 70% 30.03 in - South 6.9 mph - N/A   Scattered Clouds
10:09 PM 82.4 °F 87.2 °F 71.6 °F 70% 30.04 in - South 8.1 mph - N/A   Partly Cloudy
11:06 PM 82.9 °F 88.0 °F 72.0 °F 69% 30.04 in - South 9.2 mph - N/A   Mostly Cloudy